Regional Weather Roundup
Issued by NWS Cleveland, OH

Home | Current Version | Previous Version | Graphics & Text | Print | Product List | Glossary On
Versions: 1 2 3 4 5 6 7 8 9 10 11 12 13 14 15 16 17 18 19 20 21 22 23 24 25 26 27 28 29 30 31 32 33 34 35 36 37 38 39 40 41 42 43 44 45 46 47 48 49 50
000
ASUS41 KCLE 290210
RWRCLE
OHIO REGIONAL WEATHER ROUNDUP
NATIONAL WEATHER SERVICE CLEVELAND, OH
1000 PM EDT SAT MAY 28 2016

NOTE: "FAIR" INDICATES FEW OR NO CLOUDS BELOW 12,000 FEET WITH NO
SIGNIFICANT WEATHER AND/OR OBSTRUCTIONS TO VISIBILITY.

OHZ001>008-015>018-024>027-034-035-043-044-290300-
   NORTHWEST OHIO

CITY           SKY/WX    TMP DP  RH WIND       PRES   REMARKS
DEFIANCE       PTCLDY    71  63  75 S7        30.05S
FINDLAY        CLOUDY    71  61  70 S3        30.07S
TOLEDO EXPRESS MOCLDY    75  61  61 SW12      30.05R
TOLEDO EXEC    CLOUDY    77  64  64 SW12G21   30.06R
LIMA           CLOUDY    68  63  84 S7        30.08S
$$

OHZ009>014-019>023-028>033-038-089-290300-
   NORTHEAST OHIO

CITY           SKY/WX    TMP DP  RH WIND       PRES   REMARKS
CLE-HOPKINS    MOCLDY    73  63  70 S6        30.10S
CLE-LAKEFRONT  CLOUDY    74  66  76 SE3       30.07S
CUY CO. ARPT   MOCLDY    72  68  88 S7        30.09F
LORAIN-ELYRIA  CLOUDY    71  66  84 S3        30.08S
ASHTABULA      CLOUDY    70  68  93 CALM      30.11R
AKRON-CANTON   CLOUDY    72  63  73 N3        30.12S
WOOSTER        CLOUDY    68  62  81 CALM      30.12S
MANSFIELD      CLOUDY    71  68  90 S7        30.11S
YOUNGSTOWN     MOCLDY    75  64  68 NW5       30.11R
$$

OHZ042-051>053-060>062-070>072-077>081-290300-
  SOUTHWEST OHIO

CITY           SKY/WX    TMP DP  RH WIND       PRES   REMARKS
CINC-COVINGTON MOCLDY    71  63  75 S3        30.09F
CINC-LUNKEN    CLEAR     69  64  84 CALM      30.09R
HAMILTON       PTCLDY    74  64  71 CALM      30.09S
DAYTON         CLOUDY    72  64  76 SW6       30.10S
WRIGHT-PAT AFB NOT AVBL
DAYTON GENERAL CLEAR     75  59  57 CALM      30.09R
WILMINGTON     CLEAR     73  65  75 SW3       30.10S
$$

OHZ036-037-039>041-045>050-054>059-063>069-073>076-082>088-290300-
  CENTRAL AND SOUTHEAST OHIO

CITY           SKY/WX    TMP DP  RH WIND       PRES   REMARKS
COLUMBUS       PTCLDY    72  68  87 SE5       30.09S
OSU AIRPORT    MOCLDY    72  65  78 SE5       30.09S
BOLTON FIELD   PTCLDY    70  67  90 SE6       30.10R
RICKENBACK AFB PTCLDY    69  66  93 SE9       30.08F
NEWARK         CLOUDY    70  68  93 CALM      30.10S
MARION         CLOUDY    68  65  90 S8        30.11R
LANCASTER      PTCLDY    70  67  90 CALM      30.11S
ZANESVILLE     CLOUDY    75  66  73 CALM      30.11R
NEW PHILLY     MOCLDY    76  64  66 CALM      30.11S
$$



USA.gov is the U.S. government's official web portal to all federal, state and local government web resources and services.